Tracking 28790 objects as of 19-Apr-2024
HD Live streaming from Space Station
objects crossing your sky now

FENGYUN 1C DEB

Track FENGYUN 1C DEB now!
10-day predictions


NORAD ID: 30280
Int'l Code: 1999-025YR
Perigee: 851.4 km
Apogee: 968.3 km
Inclination: 98.8 °
Period: 103.0 minutes
Semi major axis: 7280 km
RCS: 0.043 m2 (small)
Launch date: May 10, 1999
Source: People's Republic of China (PRC)
Launch site: Taiyaun Space Center, China (TSC)

Note: This is SATELLITE DEBRIS
Your satellite tracking list
Your tracking list is empty




NASA's NSSDC Master Catalog

Two Line Element Set (TLE):
1 30280U 99025YR  24109.52378757  .00000466  00000-0  35149-3 0  9999
2 30280  98.7555 120.2668 0080253 201.1703 289.9820 13.97429068879787
Source of the keplerian elements: AFSPC